Year,Month,Day,Hour,Minute,Value (Times are PST for windgust in km/hr)
2012,07,04,00,00,4.80
2012,07,04,00,01,8.10
2012,07,04,00,02,8.10
2012,07,04,00,03,1.60
2012,07,04,00,04,4.80
2012,07,04,00,05,8.10
2012,07,04,00,06,8.10
2012,07,04,00,07,17.70
2012,07,04,00,08,6.40
2012,07,04,00,09,6.40
2012,07,04,00,10,9.60
2012,07,04,00,11,8.10
2012,07,04,00,12,8.10
2012,07,04,00,13,8.10
2012,07,04,00,14,9.60
2012,07,04,00,15,9.60
2012,07,04,00,16,11.30
2012,07,04,00,17,9.60
2012,07,04,00,18,4.80
2012,07,04,00,19,6.40
2012,07,04,00,20,4.80
2012,07,04,00,21,11.30
2012,07,04,00,22,8.10
2012,07,04,00,23,4.80
2012,07,04,00,24,4.80
2012,07,04,00,25,6.40
2012,07,04,00,26,6.40
2012,07,04,00,27,3.20
2012,07,04,00,28,3.20
2012,07,04,00,29,6.40
2012,07,04,00,30,6.40
2012,07,04,00,31,6.40
2012,07,04,00,32,6.40
2012,07,04,00,33,6.40
2012,07,04,00,34,3.20
2012,07,04,00,35,4.80
2012,07,04,00,36,8.10
2012,07,04,00,37,9.60
2012,07,04,00,38,6.40
2012,07,04,00,39,1.60
2012,07,04,00,40,1.60
2012,07,04,00,41,3.20
2012,07,04,00,42,3.20
2012,07,04,00,43,3.20
2012,07,04,00,44,3.20
2012,07,04,00,46,3.20
2012,07,04,00,47,3.20
2012,07,04,00,48,3.20
2012,07,04,00,49,3.20
2012,07,04,00,51,4.80
2012,07,04,00,52,4.80
2012,07,04,00,53,3.20
2012,07,04,00,54,3.20
2012,07,04,00,55,1.60
2012,07,04,01,01,6.40
2012,07,04,01,02,4.80
2012,07,04,01,03,3.20
2012,07,04,01,09,1.60
2012,07,04,01,10,3.20
2012,07,04,01,11,1.60
2012,07,04,01,12,3.20
2012,07,04,01,13,3.20
2012,07,04,01,14,1.60
2012,07,04,01,15,4.80
2012,07,04,01,16,3.20
2012,07,04,01,17,1.60
2012,07,04,01,18,3.20
2012,07,04,01,19,1.60
2012,07,04,01,21,3.20
2012,07,04,01,22,6.40
2012,07,04,01,23,1.60
2012,07,04,01,24,1.60
2012,07,04,01,25,1.60
2012,07,04,01,26,4.80
2012,07,04,01,27,4.80
2012,07,04,01,28,4.80
2012,07,04,01,31,3.20
2012,07,04,01,32,4.80
2012,07,04,01,33,3.20
2012,07,04,01,34,3.20
2012,07,04,01,35,4.80
2012,07,04,01,36,1.60
2012,07,04,01,37,1.60
2012,07,04,01,38,1.60
2012,07,04,01,41,3.20
2012,07,04,01,42,3.20
2012,07,04,01,43,1.60
2012,07,04,01,45,3.20
2012,07,04,01,46,3.20
2012,07,04,01,47,3.20
2012,07,04,01,49,1.60
2012,07,04,01,50,3.20
2012,07,04,01,53,3.20
2012,07,04,01,55,3.20
2012,07,04,01,56,6.40
2012,07,04,01,57,1.60
2012,07,04,01,58,8.10
2012,07,04,01,59,4.80
2012,07,04,02,00,3.20
2012,07,04,02,01,4.80
2012,07,04,02,02,3.20
2012,07,04,02,03,1.60
2012,07,04,02,04,1.60
2012,07,04,02,05,6.40
2012,07,04,02,06,4.80
2012,07,04,02,07,8.10
2012,07,04,02,08,4.80
2012,07,04,02,09,9.60
2012,07,04,02,10,8.10
2012,07,04,02,11,4.80
2012,07,04,02,12,4.80
2012,07,04,02,14,4.80
2012,07,04,02,15,4.80
2012,07,04,02,16,3.20
2012,07,04,02,17,12.90
2012,07,04,02,18,11.30
2012,07,04,02,19,9.60
2012,07,04,02,20,4.80
2012,07,04,02,21,3.20
2012,07,04,02,22,9.60
2012,07,04,02,23,11.30
2012,07,04,02,24,11.30
2012,07,04,02,25,11.30
2012,07,04,02,26,17.70
2012,07,04,02,27,11.30
2012,07,04,02,28,9.60
2012,07,04,02,29,6.40
2012,07,04,02,30,9.60
2012,07,04,02,31,8.10
2012,07,04,02,32,8.10
2012,07,04,02,33,3.20
2012,07,04,02,34,6.40
2012,07,04,02,35,8.10
2012,07,04,02,36,4.80
2012,07,04,02,37,3.20
2012,07,04,02,38,4.80
2012,07,04,02,40,1.60
2012,07,04,02,41,3.20
2012,07,04,02,43,3.20
2012,07,04,02,44,3.20
2012,07,04,02,46,3.20
2012,07,04,02,47,3.20
2012,07,04,02,48,1.60
2012,07,04,02,51,1.60
2012,07,04,02,52,3.20
2012,07,04,02,53,6.40
2012,07,04,02,54,1.60
2012,07,04,03,16,4.80
2012,07,04,03,17,3.20
2012,07,04,03,21,1.60
2012,07,04,03,24,1.60
2012,07,04,03,29,3.20
2012,07,04,03,30,3.20
2012,07,04,03,31,3.20
2012,07,04,03,32,4.80
2012,07,04,03,33,4.80
2012,07,04,03,34,6.40
2012,07,04,03,35,6.40
2012,07,04,03,36,4.80
2012,07,04,03,37,6.40
2012,07,04,03,38,3.20
2012,07,04,03,39,4.80
2012,07,04,03,40,4.80
2012,07,04,03,41,3.20
2012,07,04,03,42,1.60
2012,07,04,03,43,3.20
2012,07,04,03,45,3.20
2012,07,04,03,46,4.80
2012,07,04,03,47,3.20
2012,07,04,04,12,3.20
2012,07,04,04,13,4.80
2012,07,04,04,14,6.40
2012,07,04,04,15,4.80
2012,07,04,04,16,3.20
2012,07,04,04,17,4.80
2012,07,04,04,18,3.20
2012,07,04,04,19,3.20
2012,07,04,04,22,1.60
2012,07,04,04,42,1.60
2012,07,04,04,43,3.20
2012,07,04,04,44,1.60
2012,07,04,04,49,3.20
2012,07,04,04,50,3.20
2012,07,04,04,51,3.20
2012,07,04,04,52,3.20
2012,07,04,04,53,3.20
2012,07,04,04,54,3.20
2012,07,04,04,55,3.20
2012,07,04,04,56,3.20
2012,07,04,04,57,4.80
2012,07,04,04,58,4.80
2012,07,04,04,59,1.60
2012,07,04,05,01,1.60
2012,07,04,05,02,1.60
2012,07,04,05,07,1.60
2012,07,04,05,08,3.20
2012,07,04,05,09,3.20
2012,07,04,05,10,3.20
2012,07,04,05,15,1.60
2012,07,04,05,16,1.60
2012,07,04,05,33,1.60
2012,07,04,05,34,3.20
2012,07,04,05,35,1.60
2012,07,04,05,36,3.20
2012,07,04,05,37,1.60
2012,07,04,05,42,3.20
2012,07,04,05,43,1.60
2012,07,04,05,44,3.20
2012,07,04,05,45,1.60
2012,07,04,05,46,1.60
2012,07,04,05,47,3.20
2012,07,04,05,48,1.60
2012,07,04,05,49,1.60
2012,07,04,05,50,1.60
2012,07,04,05,51,3.20
2012,07,04,05,52,3.20
2012,07,04,05,53,3.20
2012,07,04,05,54,4.80
2012,07,04,05,55,3.20
2012,07,04,05,56,3.20
2012,07,04,05,57,3.20
2012,07,04,05,59,1.60
2012,07,04,06,00,4.80
2012,07,04,06,01,4.80
2012,07,04,06,02,3.20
2012,07,04,06,03,1.60
2012,07,04,06,04,1.60
2012,07,04,06,07,4.80
2012,07,04,06,08,3.20
2012,07,04,06,09,3.20
2012,07,04,06,10,1.60
2012,07,04,06,16,3.20
2012,07,04,06,17,4.80
2012,07,04,06,18,4.80
2012,07,04,06,19,4.80
2012,07,04,06,20,3.20
2012,07,04,06,21,1.60
2012,07,04,06,22,3.20
2012,07,04,06,25,3.20
2012,07,04,06,26,3.20
2012,07,04,06,27,1.60
2012,07,04,06,29,1.60
2012,07,04,06,30,1.60
2012,07,04,06,31,1.60
2012,07,04,06,44,3.20
2012,07,04,06,45,3.20
2012,07,04,06,46,1.60
2012,07,04,06,48,1.60
2012,07,04,06,49,3.20
2012,07,04,07,38,1.60
2012,07,04,07,41,1.60
2012,07,04,07,42,3.20
2012,07,04,07,43,3.20
2012,07,04,07,46,1.60
2012,07,04,07,48,1.60
2012,07,04,07,50,4.80
2012,07,04,07,52,1.60
2012,07,04,07,53,1.60
2012,07,04,07,59,3.20
2012,07,04,08,00,3.20
2012,07,04,08,01,1.60
2012,07,04,08,02,1.60
2012,07,04,08,05,1.60
2012,07,04,08,07,3.20
2012,07,04,08,09,1.60
2012,07,04,08,10,1.60
2012,07,04,08,11,1.60
2012,07,04,08,12,1.60
2012,07,04,08,16,1.60
2012,07,04,08,17,3.20
2012,07,04,08,18,6.40
2012,07,04,08,19,9.60
2012,07,04,08,20,4.80
2012,07,04,08,21,1.60
2012,07,04,08,22,1.60
2012,07,04,08,23,1.60
2012,07,04,08,24,3.20
2012,07,04,08,25,1.60
2012,07,04,08,27,8.10
2012,07,04,08,28,6.40
2012,07,04,08,29,6.40
2012,07,04,08,30,4.80
2012,07,04,08,31,4.80
2012,07,04,08,32,4.80
2012,07,04,08,33,8.10
2012,07,04,08,34,6.40
2012,07,04,08,35,4.80
2012,07,04,08,36,6.40
2012,07,04,08,37,6.40
2012,07,04,08,38,3.20
2012,07,04,08,39,9.60
2012,07,04,08,40,8.10
2012,07,04,08,41,3.20
2012,07,04,08,42,1.60
2012,07,04,08,43,1.60
2012,07,04,08,44,3.20
2012,07,04,08,45,6.40
2012,07,04,08,46,4.80
2012,07,04,08,47,1.60
2012,07,04,08,48,4.80
2012,07,04,08,49,4.80
2012,07,04,08,50,6.40
2012,07,04,08,51,6.40
2012,07,04,08,52,9.60
2012,07,04,08,53,8.10
2012,07,04,08,54,8.10
2012,07,04,08,55,9.60
2012,07,04,08,56,11.30
2012,07,04,08,57,6.40
2012,07,04,08,58,3.20
2012,07,04,08,59,3.20
2012,07,04,09,00,4.80
2012,07,04,09,01,6.40
2012,07,04,09,02,8.10
2012,07,04,09,03,4.80
2012,07,04,09,04,6.40
2012,07,04,09,05,3.20
2012,07,04,09,06,3.20
2012,07,04,09,07,3.20
2012,07,04,09,08,8.10
2012,07,04,09,09,3.20
2012,07,04,09,10,4.80
2012,07,04,09,11,3.20
2012,07,04,09,12,6.40
2012,07,04,09,13,9.60
2012,07,04,09,14,6.40
2012,07,04,09,15,6.40
2012,07,04,09,16,6.40
2012,07,04,09,17,4.80
2012,07,04,09,18,8.10
2012,07,04,09,19,11.30
2012,07,04,09,20,8.10
2012,07,04,09,21,4.80
2012,07,04,09,22,8.10
2012,07,04,09,23,3.20
2012,07,04,09,24,1.60
2012,07,04,09,25,1.60
2012,07,04,09,26,6.40
2012,07,04,09,27,3.20
2012,07,04,09,28,8.10
2012,07,04,09,29,4.80
2012,07,04,09,30,4.80
2012,07,04,09,31,6.40
2012,07,04,09,32,8.10
2012,07,04,09,33,6.40
2012,07,04,09,34,3.20
2012,07,04,09,35,4.80
2012,07,04,09,36,3.20
2012,07,04,09,37,4.80
2012,07,04,09,38,4.80
2012,07,04,09,39,6.40
2012,07,04,09,40,6.40
2012,07,04,09,41,3.20
2012,07,04,09,42,4.80
2012,07,04,09,43,6.40
2012,07,04,09,44,6.40
2012,07,04,09,45,3.20
2012,07,04,09,46,6.40
2012,07,04,09,47,4.80
2012,07,04,09,48,9.60
2012,07,04,09,49,8.10
2012,07,04,09,50,9.60
2012,07,04,09,51,8.10
2012,07,04,09,52,4.80
2012,07,04,09,53,8.10
2012,07,04,09,54,4.80
2012,07,04,09,55,1.60
2012,07,04,09,56,4.80
2012,07,04,09,57,3.20
2012,07,04,09,58,8.10
2012,07,04,09,59,8.10
2012,07,04,10,00,6.40
2012,07,04,10,01,4.80
2012,07,04,10,02,4.80
2012,07,04,10,03,4.80
2012,07,04,10,04,8.10
2012,07,04,10,05,4.80
2012,07,04,10,06,8.10
2012,07,04,10,07,4.80
2012,07,04,10,08,6.40
2012,07,04,10,09,8.10
2012,07,04,10,10,9.60
2012,07,04,10,11,4.80
2012,07,04,10,12,3.20
2012,07,04,10,13,1.60
2012,07,04,10,14,3.20
2012,07,04,10,15,3.20
2012,07,04,10,16,9.60
2012,07,04,10,17,9.60
2012,07,04,10,18,8.10
2012,07,04,10,19,9.60
2012,07,04,10,20,8.10
2012,07,04,10,21,6.40
2012,07,04,10,22,6.40
2012,07,04,10,23,9.60
2012,07,04,10,24,9.60
2012,07,04,10,25,8.10
2012,07,04,10,26,6.40
2012,07,04,10,27,8.10
2012,07,04,10,28,6.40
2012,07,04,10,29,6.40
2012,07,04,10,30,6.40
2012,07,04,10,31,4.80
2012,07,04,10,32,3.20
2012,07,04,10,33,3.20
2012,07,04,10,34,3.20
2012,07,04,10,35,4.80
2012,07,04,10,36,3.20
2012,07,04,10,37,4.80
2012,07,04,10,38,3.20
2012,07,04,10,39,1.60
2012,07,04,10,40,1.60
2012,07,04,10,41,3.20
2012,07,04,10,42,1.60
2012,07,04,10,43,4.80
2012,07,04,10,44,4.80
2012,07,04,10,45,4.80
2012,07,04,10,46,4.80
2012,07,04,10,47,4.80
2012,07,04,10,48,3.20
2012,07,04,10,49,6.40
2012,07,04,10,50,6.40
2012,07,04,10,51,6.40
2012,07,04,10,52,6.40
2012,07,04,10,53,4.80
2012,07,04,10,54,1.60
2012,07,04,10,55,4.80
2012,07,04,10,56,1.60
2012,07,04,10,57,1.60
2012,07,04,10,58,4.80
2012,07,04,10,59,3.20
2012,07,04,11,00,3.20
2012,07,04,11,02,4.80
2012,07,04,11,03,4.80
2012,07,04,11,04,1.60
2012,07,04,11,06,3.20
2012,07,04,11,07,3.20
2012,07,04,11,08,1.60
2012,07,04,11,09,1.60
2012,07,04,11,10,4.80
2012,07,04,11,11,6.40
2012,07,04,11,12,3.20
2012,07,04,11,13,3.20
2012,07,04,11,14,6.40
2012,07,04,11,15,4.80
2012,07,04,11,16,3.20
2012,07,04,11,17,1.60
2012,07,04,11,18,4.80
2012,07,04,11,19,8.10
2012,07,04,11,20,3.20
2012,07,04,11,22,9.60
2012,07,04,11,23,9.60
2012,07,04,11,24,16.10
2012,07,04,11,25,12.90
2012,07,04,11,26,8.10
2012,07,04,11,27,6.40
2012,07,04,11,28,6.40
2012,07,04,11,29,4.80
2012,07,04,11,30,4.80
2012,07,04,11,31,8.10
2012,07,04,11,32,8.10
2012,07,04,11,33,1.60
2012,07,04,11,34,4.80
2012,07,04,11,35,9.60
2012,07,04,11,36,8.10
2012,07,04,11,37,9.60
2012,07,04,11,38,6.40
2012,07,04,11,39,4.80
2012,07,04,11,40,11.30
2012,07,04,11,41,8.10
2012,07,04,11,42,8.10
2012,07,04,11,43,8.10
2012,07,04,11,44,8.10
2012,07,04,11,45,8.10
2012,07,04,11,46,8.10
2012,07,04,11,47,4.80
2012,07,04,11,48,8.10
2012,07,04,11,49,11.30
2012,07,04,11,50,8.10
2012,07,04,11,51,9.60
2012,07,04,11,52,9.60
2012,07,04,11,53,11.30
2012,07,04,11,54,11.30
2012,07,04,11,55,11.30
2012,07,04,11,56,16.10
2012,07,04,11,57,19.30
2012,07,04,11,58,11.30
2012,07,04,11,59,14.50
2012,07,04,12,00,11.30
2012,07,04,12,01,11.30
2012,07,04,12,02,9.60
2012,07,04,12,03,11.30
2012,07,04,12,04,14.50
2012,07,04,12,05,9.60
2012,07,04,12,06,16.10
2012,07,04,12,07,11.30
2012,07,04,12,08,9.60
2012,07,04,12,09,9.60
2012,07,04,12,10,11.30
2012,07,04,12,11,14.50
2012,07,04,12,12,11.30
2012,07,04,12,13,11.30
2012,07,04,12,14,14.50
2012,07,04,12,15,14.50
2012,07,04,12,16,11.30
2012,07,04,12,17,14.50
2012,07,04,12,18,11.30
2012,07,04,12,19,12.90
2012,07,04,12,20,16.10
2012,07,04,12,21,12.90
2012,07,04,12,22,9.60
2012,07,04,12,23,8.10
2012,07,04,12,24,16.10
2012,07,04,12,25,16.10
2012,07,04,12,26,9.60
2012,07,04,12,27,19.30
2012,07,04,12,28,14.50
2012,07,04,12,29,12.90
2012,07,04,12,30,16.10
2012,07,04,12,31,11.30
2012,07,04,12,32,9.60
2012,07,04,12,33,14.50
2012,07,04,12,34,16.10
2012,07,04,12,35,9.60
2012,07,04,12,36,11.30
2012,07,04,12,37,9.60
2012,07,04,12,38,6.40
2012,07,04,12,39,4.80
2012,07,04,12,40,8.10
2012,07,04,12,41,11.30
2012,07,04,12,42,8.10
2012,07,04,12,43,12.90
2012,07,04,12,44,16.10
2012,07,04,12,45,6.40
2012,07,04,12,46,11.30
2012,07,04,12,47,9.60
2012,07,04,12,48,9.60
2012,07,04,12,49,8.10
2012,07,04,12,50,8.10
2012,07,04,12,51,17.70
2012,07,04,12,52,8.10
2012,07,04,12,53,16.10
2012,07,04,12,54,11.30
2012,07,04,12,55,11.30
2012,07,04,12,56,9.60
2012,07,04,12,57,14.50
2012,07,04,12,58,12.90
2012,07,04,12,59,14.50
2012,07,04,13,00,16.10
2012,07,04,13,01,14.50
2012,07,04,13,02,14.50
2012,07,04,13,03,8.10
2012,07,04,13,04,9.60
2012,07,04,13,05,17.70
2012,07,04,13,06,8.10
2012,07,04,13,07,9.60
2012,07,04,13,08,8.10
2012,07,04,13,09,9.60
2012,07,04,13,10,14.50
2012,07,04,13,11,16.10
2012,07,04,13,12,9.60
2012,07,04,13,13,14.50
2012,07,04,13,14,11.30
2012,07,04,13,15,12.90
2012,07,04,13,16,12.90
2012,07,04,13,17,16.10
2012,07,04,13,18,9.60
2012,07,04,13,19,9.60
2012,07,04,13,20,17.70
2012,07,04,13,21,17.70
2012,07,04,13,22,16.10
2012,07,04,13,23,17.70
2012,07,04,13,24,11.30
2012,07,04,13,25,6.40
2012,07,04,13,26,14.50
2012,07,04,13,27,6.40
2012,07,04,13,28,6.40
2012,07,04,13,29,4.80
2012,07,04,13,30,4.80
2012,07,04,13,31,8.10
2012,07,04,13,32,6.40
2012,07,04,13,33,6.40
2012,07,04,13,34,6.40
2012,07,04,13,35,9.60
2012,07,04,13,36,12.90
2012,07,04,13,37,11.30
2012,07,04,13,38,11.30
2012,07,04,13,39,9.60
2012,07,04,13,40,12.90
2012,07,04,13,41,11.30
2012,07,04,13,42,8.10
2012,07,04,13,43,11.30
2012,07,04,13,44,12.90
2012,07,04,13,45,11.30
2012,07,04,13,46,9.60
2012,07,04,13,47,8.10
2012,07,04,13,48,8.10
2012,07,04,13,49,8.10
2012,07,04,13,50,12.90
2012,07,04,13,51,9.60
2012,07,04,13,52,9.60
2012,07,04,13,53,9.60
2012,07,04,13,54,12.90
2012,07,04,13,55,11.30
2012,07,04,13,56,17.70
2012,07,04,13,57,14.50
2012,07,04,13,58,9.60
2012,07,04,13,59,8.10
2012,07,04,14,00,17.70
2012,07,04,14,01,12.90
2012,07,04,14,02,16.10
2012,07,04,14,03,8.10
2012,07,04,14,04,9.60
2012,07,04,14,05,8.10
2012,07,04,14,06,6.40
2012,07,04,14,07,12.90
2012,07,04,14,08,14.50
2012,07,04,14,09,8.10
2012,07,04,14,10,11.30
2012,07,04,14,11,11.30
2012,07,04,14,12,12.90
2012,07,04,14,13,9.60
2012,07,04,14,14,11.30
2012,07,04,14,15,8.10
2012,07,04,14,16,8.10
2012,07,04,14,17,11.30
2012,07,04,14,18,12.90
2012,07,04,14,19,4.80
2012,07,04,14,20,8.10
2012,07,04,14,21,6.40
2012,07,04,14,22,6.40
2012,07,04,14,23,11.30
2012,07,04,14,24,14.50
2012,07,04,14,25,9.60
2012,07,04,14,26,11.30
2012,07,04,14,27,11.30
2012,07,04,14,28,6.40
2012,07,04,14,29,11.30
2012,07,04,14,30,8.10
2012,07,04,14,31,14.50
2012,07,04,14,32,4.80
2012,07,04,14,33,8.10
2012,07,04,14,34,9.60
2012,07,04,14,35,8.10
2012,07,04,14,36,4.80
2012,07,04,14,37,11.30
2012,07,04,14,38,11.30
2012,07,04,14,39,8.10
2012,07,04,14,40,9.60
2012,07,04,14,41,17.70
2012,07,04,14,42,12.90
2012,07,04,14,43,9.60
2012,07,04,14,44,8.10
2012,07,04,14,45,12.90
2012,07,04,14,46,11.30
2012,07,04,14,47,14.50
2012,07,04,14,48,8.10
2012,07,04,14,49,9.60
2012,07,04,14,50,9.60
2012,07,04,14,51,8.10
2012,07,04,14,52,9.60
2012,07,04,14,53,8.10
2012,07,04,14,54,9.60
2012,07,04,14,55,9.60
2012,07,04,14,56,11.30
2012,07,04,14,57,6.40
2012,07,04,14,58,6.40
2012,07,04,14,59,6.40
2012,07,04,15,00,11.30
2012,07,04,15,01,9.60
2012,07,04,15,02,6.40
2012,07,04,15,03,6.40
2012,07,04,15,04,8.10
2012,07,04,15,05,11.30
2012,07,04,15,06,8.10
2012,07,04,15,07,8.10
2012,07,04,15,08,11.30
2012,07,04,15,09,11.30
2012,07,04,15,10,9.60
2012,07,04,15,11,3.20
2012,07,04,15,12,4.80
2012,07,04,15,13,6.40
2012,07,04,15,14,6.40
2012,07,04,15,15,3.20
2012,07,04,15,16,4.80
2012,07,04,15,17,6.40
2012,07,04,15,18,8.10
2012,07,04,15,19,11.30
2012,07,04,15,20,9.60
2012,07,04,15,21,9.60
2012,07,04,15,22,6.40
2012,07,04,15,23,9.60
2012,07,04,15,24,9.60
2012,07,04,15,25,9.60
2012,07,04,15,26,6.40
2012,07,04,15,27,6.40
2012,07,04,15,28,9.60
2012,07,04,15,29,16.10
2012,07,04,15,30,9.60
2012,07,04,15,31,8.10
2012,07,04,15,32,4.80
2012,07,04,15,33,9.60
2012,07,04,15,34,6.40
2012,07,04,15,35,3.20
2012,07,04,15,36,8.10
2012,07,04,15,37,11.30
2012,07,04,15,38,11.30
2012,07,04,15,39,11.30
2012,07,04,15,40,8.10
2012,07,04,15,41,8.10
2012,07,04,15,42,8.10
2012,07,04,15,43,4.80
2012,07,04,15,44,4.80
2012,07,04,15,45,6.40
2012,07,04,15,46,6.40
2012,07,04,15,47,8.10
2012,07,04,15,48,6.40
2012,07,04,15,49,6.40
2012,07,04,15,50,11.30
2012,07,04,15,51,9.60
2012,07,04,15,52,14.50
2012,07,04,15,53,9.60
2012,07,04,15,54,9.60
2012,07,04,15,55,11.30
2012,07,04,15,56,8.10
2012,07,04,15,57,8.10
2012,07,04,15,58,9.60
2012,07,04,15,59,11.30
2012,07,04,16,00,4.80
2012,07,04,16,01,6.40
2012,07,04,16,02,3.20
2012,07,04,16,03,8.10
2012,07,04,16,04,9.60
2012,07,04,16,05,6.40
2012,07,04,16,06,6.40
2012,07,04,16,07,6.40
2012,07,04,16,08,4.80
2012,07,04,16,09,11.30
2012,07,04,16,10,6.40
2012,07,04,16,11,8.10
2012,07,04,16,12,11.30
2012,07,04,16,13,8.10
2012,07,04,16,14,8.10
2012,07,04,16,15,8.10
2012,07,04,16,16,11.30
2012,07,04,16,17,9.60
2012,07,04,16,18,11.30
2012,07,04,16,19,9.60
2012,07,04,16,20,9.60
2012,07,04,16,21,16.10
2012,07,04,16,22,11.30
2012,07,04,16,23,6.40
2012,07,04,16,24,16.10
2012,07,04,16,25,12.90
2012,07,04,16,26,11.30
2012,07,04,16,27,11.30
2012,07,04,16,28,8.10
2012,07,04,16,29,9.60
2012,07,04,16,30,8.10
2012,07,04,16,31,8.10
2012,07,04,16,32,9.60
2012,07,04,16,33,1.60
2012,07,04,16,34,3.20
2012,07,04,16,35,4.80
2012,07,04,16,36,12.90
2012,07,04,16,37,9.60
2012,07,04,16,38,8.10
2012,07,04,16,39,8.10
2012,07,04,16,40,9.60
2012,07,04,16,41,8.10
2012,07,04,16,42,4.80
2012,07,04,16,43,11.30
2012,07,04,16,44,11.30
2012,07,04,16,45,8.10
2012,07,04,16,46,8.10
2012,07,04,16,47,6.40
2012,07,04,16,48,9.60
2012,07,04,16,49,8.10
2012,07,04,16,50,9.60
2012,07,04,16,51,11.30
2012,07,04,16,52,3.20
2012,07,04,16,53,11.30
2012,07,04,16,54,11.30
2012,07,04,16,55,6.40
2012,07,04,16,56,11.30
2012,07,04,16,57,11.30
2012,07,04,16,58,11.30
2012,07,04,16,59,4.80
2012,07,04,17,00,6.40
2012,07,04,17,01,6.40
2012,07,04,17,02,8.10
2012,07,04,17,03,4.80
2012,07,04,17,04,6.40
2012,07,04,17,05,4.80
2012,07,04,17,06,8.10
2012,07,04,17,07,8.10
2012,07,04,17,08,11.30
2012,07,04,17,09,9.60
2012,07,04,17,10,4.80
2012,07,04,17,11,6.40
2012,07,04,17,12,4.80
2012,07,04,17,13,3.20
2012,07,04,17,14,6.40
2012,07,04,17,15,8.10
2012,07,04,17,16,3.20
2012,07,04,17,17,6.40
2012,07,04,17,18,8.10
2012,07,04,17,19,3.20
2012,07,04,17,20,8.10
2012,07,04,17,21,3.20
2012,07,04,17,22,11.30
2012,07,04,17,23,8.10
2012,07,04,17,24,6.40
2012,07,04,17,25,6.40
2012,07,04,17,26,6.40
2012,07,04,17,27,6.40
2012,07,04,17,28,11.30
2012,07,04,17,29,9.60
2012,07,04,17,30,11.30
2012,07,04,17,31,4.80
2012,07,04,17,32,8.10
2012,07,04,17,33,9.60
2012,07,04,17,34,9.60
2012,07,04,17,35,11.30
2012,07,04,17,36,4.80
2012,07,04,17,37,11.30
2012,07,04,17,38,12.90
2012,07,04,17,39,16.10
2012,07,04,17,40,8.10
2012,07,04,17,41,8.10
2012,07,04,17,42,9.60
2012,07,04,17,43,11.30
2012,07,04,17,44,6.40
2012,07,04,17,45,8.10
2012,07,04,17,46,9.60
2012,07,04,17,47,6.40
2012,07,04,17,48,6.40
2012,07,04,17,49,6.40
2012,07,04,17,50,6.40
2012,07,04,17,51,11.30
2012,07,04,17,52,8.10
2012,07,04,17,53,9.60
2012,07,04,17,54,6.40
2012,07,04,17,55,9.60
2012,07,04,17,56,11.30
2012,07,04,17,57,9.60
2012,07,04,17,58,9.60
2012,07,04,17,59,6.40
2012,07,04,18,00,6.40
2012,07,04,18,01,6.40
2012,07,04,18,02,6.40
2012,07,04,18,03,6.40
2012,07,04,18,04,1.60
2012,07,04,18,05,4.80
2012,07,04,18,06,6.40
2012,07,04,18,07,3.20
2012,07,04,18,08,8.10
2012,07,04,18,09,4.80
2012,07,04,18,10,6.40
2012,07,04,18,11,9.60
2012,07,04,18,12,8.10
2012,07,04,18,13,6.40
2012,07,04,18,14,1.60
2012,07,04,18,15,6.40
2012,07,04,18,16,6.40
2012,07,04,18,19,1.60
2012,07,04,18,20,6.40
2012,07,04,18,21,9.60
2012,07,04,18,22,4.80
2012,07,04,18,23,4.80
2012,07,04,18,24,6.40
2012,07,04,18,25,6.40
2012,07,04,18,26,8.10
2012,07,04,18,27,4.80
2012,07,04,18,28,6.40
2012,07,04,18,29,4.80
2012,07,04,18,30,4.80
2012,07,04,18,31,1.60
2012,07,04,18,32,4.80
2012,07,04,18,33,8.10
2012,07,04,18,34,8.10
2012,07,04,18,35,6.40
2012,07,04,18,36,8.10
2012,07,04,18,37,4.80
2012,07,04,18,38,4.80
2012,07,04,18,39,6.40
2012,07,04,18,40,9.60
2012,07,04,18,41,8.10
2012,07,04,18,42,3.20
2012,07,04,18,43,8.10
2012,07,04,18,44,4.80
2012,07,04,18,45,6.40
2012,07,04,18,46,3.20
2012,07,04,18,47,6.40
2012,07,04,18,48,4.80
2012,07,04,18,49,4.80
2012,07,04,18,50,6.40
2012,07,04,18,51,8.10
2012,07,04,18,52,8.10
2012,07,04,18,53,6.40
2012,07,04,18,54,4.80
2012,07,04,18,55,8.10
2012,07,04,18,56,1.60
2012,07,04,18,57,8.10
2012,07,04,18,58,8.10
2012,07,04,18,59,6.40
2012,07,04,19,00,6.40
2012,07,04,19,01,1.60
2012,07,04,19,03,1.60
2012,07,04,19,04,4.80
2012,07,04,19,05,6.40
2012,07,04,19,06,6.40
2012,07,04,19,07,3.20
2012,07,04,19,09,1.60
2012,07,04,19,10,3.20
2012,07,04,19,11,4.80
2012,07,04,19,12,1.60
2012,07,04,19,13,6.40
2012,07,04,19,14,4.80
2012,07,04,19,15,6.40
2012,07,04,19,16,4.80
2012,07,04,19,18,4.80
2012,07,04,19,19,4.80
2012,07,04,19,20,6.40
2012,07,04,19,21,3.20
2012,07,04,19,23,4.80
2012,07,04,19,24,6.40
2012,07,04,19,25,3.20
2012,07,04,19,26,1.60
2012,07,04,19,28,3.20
2012,07,04,19,29,4.80
2012,07,04,19,30,4.80
2012,07,04,19,31,3.20
2012,07,04,19,32,4.80
2012,07,04,19,33,1.60
2012,07,04,19,34,6.40
2012,07,04,19,35,6.40
2012,07,04,19,36,8.10
2012,07,04,19,37,9.60
2012,07,04,19,38,4.80
2012,07,04,19,39,1.60
2012,07,04,19,40,6.40
2012,07,04,19,41,4.80
2012,07,04,19,42,3.20
2012,07,04,19,43,4.80
2012,07,04,19,44,4.80
2012,07,04,19,45,6.40
2012,07,04,19,46,6.40
2012,07,04,19,47,6.40
2012,07,04,19,48,3.20
2012,07,04,19,49,3.20
2012,07,04,19,50,4.80
2012,07,04,19,51,3.20
2012,07,04,19,52,4.80
2012,07,04,19,53,1.60
2012,07,04,19,54,4.80
2012,07,04,19,55,4.80
2012,07,04,19,56,3.20
2012,07,04,19,57,3.20
2012,07,04,19,58,4.80
2012,07,04,19,59,4.80
2012,07,04,20,00,6.40
2012,07,04,20,01,1.60
2012,07,04,20,02,3.20
2012,07,04,20,03,1.60
2012,07,04,20,04,4.80
2012,07,04,20,05,4.80
2012,07,04,20,06,3.20
2012,07,04,20,07,4.80
2012,07,04,20,08,6.40
2012,07,04,20,09,6.40
2012,07,04,20,10,6.40
2012,07,04,20,11,6.40
2012,07,04,20,12,4.80
2012,07,04,20,13,6.40
2012,07,04,20,14,4.80
2012,07,04,20,15,4.80
2012,07,04,20,16,4.80
2012,07,04,20,17,4.80
2012,07,04,20,18,6.40
2012,07,04,20,19,4.80
2012,07,04,20,20,3.20
2012,07,04,20,21,9.60
2012,07,04,20,22,6.40
2012,07,04,20,23,4.80
2012,07,04,20,24,1.60
2012,07,04,20,25,3.20
2012,07,04,20,26,6.40
2012,07,04,20,27,4.80
2012,07,04,20,28,3.20
2012,07,04,20,30,1.60
2012,07,04,20,31,1.60
2012,07,04,20,33,3.20
2012,07,04,20,34,1.60
2012,07,04,20,35,3.20
2012,07,04,20,36,3.20
2012,07,04,20,37,1.60
2012,07,04,20,38,1.60
2012,07,04,20,39,1.60
2012,07,04,20,42,1.60
2012,07,04,20,44,1.60
2012,07,04,20,49,3.20
2012,07,04,20,50,3.20
2012,07,04,20,56,1.60
2012,07,04,20,57,4.80
2012,07,04,20,58,3.20
2012,07,04,21,00,1.60
2012,07,04,21,03,1.60
2012,07,04,21,04,1.60
2012,07,04,21,06,1.60
2012,07,04,21,09,3.20
2012,07,04,21,31,1.60
2012,07,04,21,32,1.60
2012,07,04,22,03,1.60
2012,07,04,22,05,1.60
2012,07,04,22,06,1.60
2012,07,04,22,08,1.60
2012,07,04,22,22,1.60
2012,07,04,22,23,3.20
2012,07,04,22,24,3.20
2012,07,04,22,25,4.80
2012,07,04,22,26,3.20
2012,07,04,22,27,1.60
2012,07,04,22,28,1.60
